Terminal Aerodrome Forecast
Issued by NWS

Home | Current Version | Previous Version | Text Only | Print | Product List | Glossary On
Versions: 1 2 3 4 5 6 7 8 9 10 11 12 13 14 15 16 17 18 19 20 21 22 23 24 25 26 27 28 29 30 31 32 33 34 35 36 37 38 39 40 41 42 43 44 45 46 47 48 49 50
000
FTAK31 PANC 230523
TAFASD
TAF
PASD 230523Z 2306/2406 VRB04KT 6SM -RA SCT003 OVC006
      TEMPO 2306/2310 4SM -RA BKN005
     FM231400 12006KT 2SM -RA BR OVC005
     FM232000 12007KT P6SM -SHRA SCT005 BKN012
      AMD LTD TO CLD VIS AND WIND=

USA.gov is the U.S. government's official web portal to all federal, state and local government web resources and services.